[[{"header":{"parameterUnit":"m.s-1","parameterCategory":1,"la1":30.2991,"la2":30.254,"lo1":-89.0895,"lo2":-89.0444,"dy":0.0017,"dx":0.0017,"nx":28,"ny":28,"refTime":"2025-11-25T03:00:00:Z","depth":0,"parameterNumber":2,"parameterNumberName":"U-component_of_WINDS"},"data":[0,0,0,0,0,0,0,0,0,0,0,0,0,0,0,0,0,0,0,0,0,0,0,0,0,0,0,0,0,0,0,0,0,0,0,0,0,0,0,0,0,0,0,0,0,0,0,0,0,0,0,0,0,0,0,0,0,0,1.7203,1.7203,0,1.7242,1.7242,1.7243,1.7246,1.7245,1.7245,1.7244,1.7283,1.7284,1.7286,0,0,0,0,0,0,0,0,0,0,0,0,0,1.7132,1.7133,1.7203,1.7203,1.7204,1.7242,1.7242,1.7243,1.7246,1.7245,1.7245,1.7244,1.7283,1.7284,1.7286,0,0,0,0,0,0,0,0,0,0,0,0,0,1.7166,1.7133,1.7203,1.721,1.7211,1.7241,1.7242,1.7243,1.7246,1.7245,1.7244,1.7244,1.7282,1.7284,1.7286,1.7312,0,0,1.7293,1.7294,0,0,0,0,0,0,0,0,1.7164,1.7168,1.7208,1.7209,1.7211,1.7238,1.7231,1.7266,1.7246,1.7232,1.7244,1.7244,1.7269,1.7272,1.728,1.7314,1.7315,1.7293,1.7294,1.7295,1.7296,0,0,0,0,0,0,0,1.7161,1.7167,1.7218,1.7209,1.721,1.7211,1.7215,1.7238,1.7254,1.7234,1.7234,1.7239,1.7269,1.7278,1.7281,1.7316,1.7293,1.7295,1.7296,1.7297,1.7374,1.7375,0,0,0,0,0,0,1.7158,1.7165,1.7217,1.7219,1.7185,1.7213,1.7218,1.723,1.7253,1.7256,1.7239,1.7238,1.7275,1.7279,1.7283,1.7315,1.7295,1.7297,1.7298,1.7373,1.7374,1.7375,0,0,0,0,0,0,1.7156,1.7162,1.7215,1.7192,1.7199,1.7215,1.7229,1.7231,1.724,1.7257,1.726,1.7246,1.7275,1.728,1.7305,1.7316,1.7298,1.73,1.7372,1.7374,1.7375,1.7379,0,0,0,0,0,0,1.7154,1.7162,1.7171,1.7192,1.72,1.7237,1.7229,1.7232,1.7244,1.7244,1.7264,1.7267,1.7275,1.7302,1.7307,1.7319,1.7302,1.7371,1.7373,1.7374,1.7378,1.738,1.7382,0,0,0,0,0,1.7151,1.7171,1.7172,1.7178,1.7213,1.7237,1.7242,1.725,1.7245,1.7255,1.7266,1.7266,1.7315,1.7304,1.731,1.7323,1.7371,1.7372,1.7374,1.7377,1.738,1.7382,0,0,0,0,0,0,1.715,1.7173,1.7175,1.7202,1.7218,1.7238,1.7251,1.7253,1.727,1.7269,1.7279,1.7284,1.7309,1.7319,1.7307,1.735,1.7342,1.7345,1.7342,1.7345,1.7347,1.7344,1.7303,0,0,0,0,0,1.7153,1.7171,1.7191,1.7212,1.722,1.7234,1.7245,1.7251,1.7268,1.7274,1.7287,1.7303,1.7322,1.7334,1.7353,1.738,1.7385,1.7392,1.7394,1.7396,1.7398,1.7414,1.7417,1.7381,1.7381,1.7381,0,0,1.7158,1.7174,1.7184,1.7212,1.7225,1.7244,1.724,1.726,1.7274,1.7277,1.7302,1.7312,1.7331,1.7358,1.737,1.7367,1.7409,1.7398,1.7399,1.74,1.7416,1.7419,1.7422,1.7382,1.7382,1.7382,0,0,1.7178,1.7192,1.7212,1.7225,1.7245,1.7255,1.726,1.728,1.7288,1.7313,1.7316,1.7333,1.7366,1.7379,1.739,1.7418,1.7419,1.7424,1.7434,1.745,1.7452,1.7455,1.7465,1.7468,1.7426,1.7426,1.7426,0,1.7183,1.7211,1.7221,1.7241,1.7254,1.7259,1.7279,1.7292,1.7317,1.7325,1.7322,1.7363,1.7376,1.7406,1.7413,1.7422,1.7428,1.742,1.7451,1.7454,1.7456,1.7466,1.747,1.7426,1.7426,1.7426,1.7426,0,1.7216,1.7236,1.7249,1.7274,1.7288,1.7308,1.7322,1.7335,1.734,1.735,1.7376,1.7393,1.7415,1.7422,1.7427,1.7454,1.7451,1.7449,1.7441,1.746,1.7469,1.7473,1.7427,1.7427,1.7427,1.7427,0,0,1.7233,1.7265,1.727,1.7282,1.7305,1.7321,1.7342,1.7364,1.7376,1.7393,1.7411,1.7439,1.7438,1.7451,1.7457,1.7471,1.7492,1.7468,1.7468,1.7471,1.7524,1.7524,1.7528,1.7494,1.7495,1.7495,1.7522,0,1.7256,1.7293,1.7304,1.7335,1.7354,1.736,1.7379,1.7395,1.7406,1.7424,1.7436,1.7455,1.7452,1.746,1.7474,1.7487,1.7503,1.7485,1.751,1.7511,1.7504,1.7533,1.7533,1.7558,1.7526,1.7526,1.7527,0,1.7286,1.7305,1.7339,1.7361,1.737,1.7386,1.7408,1.7425,1.7444,1.7451,1.7467,1.7472,1.7495,1.7487,1.7519,1.7506,1.7518,1.7526,1.7527,1.7529,1.7519,1.7535,1.7565,1.7569,1.7532,1.7532,1.7531,0,1.7295,1.733,1.7354,1.7364,1.7391,1.7403,1.7414,1.7434,1.7447,1.7466,1.7475,1.7497,1.7509,1.7526,1.7537,1.7531,1.7568,1.7561,1.7574,1.7574,1.758,1.758,1.7613,1.7589,1.7589,1.7589,1.7589,0,1.7318,1.7338,1.7359,1.7374,1.7397,1.741,1.7433,1.7445,1.7462,1.748,1.7487,1.7504,1.7519,1.7538,1.7547,1.7572,1.7577,1.7584,1.7586,1.7582,1.7582,1.7589,1.7587,1.759,1.759,1.759,1.759,0,1.7332,1.7346,1.7374,1.7398,1.7404,1.742,1.7441,1.7456,1.7468,1.7491,1.7497,1.7515,1.7538,1.7552,1.758,1.7587,1.7614,1.7616,1.7607,1.7608,1.7621,1.7619,1.7659,1.7665,1.7638,1.7638,1.7638,0,1.7345,1.7361,1.7387,1.74,1.7412,1.7432,1.7446,1.746,1.7474,1.7499,1.7511,1.7535,1.7554,1.759,1.7606,1.7628,1.763,1.7643,1.7634,1.763,1.763,1.7629,1.763,1.7644,1.7644,1.7644,1.7644,0,1.7366,1.7373,1.7393,1.7416,1.7433,1.7451,1.747,1.748,1.7497,1.7513,1.7536,1.7552,1.7582,1.7605,1.7629,1.7642,1.7646,1.7648,1.7652,1.7648,1.7642,1.7645,1.7611,1.7646,1.7646,1.7646,1.7646,1.7646,1.738,1.7394,1.7416,1.7438,1.7454,1.7471,1.7487,1.7501,1.7521,1.7547,1.7555,1.7579,1.76,1.7633,1.7647,1.7667,1.7665,1.7671,1.7672,1.7673,1.7673,1.764,1.7671,1.7671,1.7671,1.7671,1.7671,0,1.7401,1.7416,1.7436,1.7463,1.748,1.7484,1.7505,1.752,1.7542,1.7561,1.7581,1.7608,1.7632,1.765,1.7674,1.7687,1.769,1.7693,1.7691,1.7694,1.7674,1.7668,1.769,1.769,1.769,1.769,1.769,1.769,1.7415,1.744,1.745,1.7483,1.7498,1.7522,1.7534,1.7551,1.7567,1.7597,1.7617,1.7629,1.7649,1.7675,1.7696,1.7701,1.771,1.7712,1.7718,1.7698,1.7696,1.7694,1.7688,1.7714,1.7714,1.7736,1.7737,1.7737]},{"header":{"parameterUnit":"m.s-1","parameterCategory":1,"la1":30.2991,"la2":30.254,"lo1":-89.0895,"lo2":-89.0444,"dy":0.0017,"dx":0.0017,"nx":28,"ny":28,"refTime":"2025-11-25T03:00:00:Z","depth":0,"parameterNumber":3,"parameterNumberName":"V-component_of_WINDS"},"data":[0,0,0,0,0,0,0,0,0,0,0,0,0,0,0,0,0,0,0,0,0,0,0,0,0,0,0,0,0,0,0,0,0,0,0,0,0,0,0,0,0,0,0,0,0,0,0,0,0,0,0,0,0,0,0,0,0,0,-7.4411,-7.4412,0,-7.4577,-7.4579,-7.4581,-7.4511,-7.4507,-7.4503,-7.4499,-7.4662,-7.467,-7.4678,0,0,0,0,0,0,0,0,0,0,0,0,0,-7.4026,-7.4033,-7.441,-7.4413,-7.4415,-7.4577,-7.4579,-7.4581,-7.4511,-7.4507,-7.4502,-7.4497,-7.4659,-7.4669,-7.4678,0,0,0,0,0,0,0,0,0,0,0,0,0,-7.4192,-7.4036,-7.441,-7.44,-7.44,-7.4576,-7.4579,-7.4582,-7.4512,-7.4506,-7.45,-7.4495,-7.4656,-7.4668,-7.468,-7.4873,0,0,-7.4716,-7.4722,0,0,0,0,0,0,0,0,-7.4183,-7.4207,-7.4399,-7.4401,-7.4402,-7.4517,-7.4503,-7.4679,-7.4514,-7.447,-7.4499,-7.4492,-7.4618,-7.4633,-7.4677,-7.4881,-7.4888,-7.4718,-7.4725,-7.473,-7.4733,0,0,0,0,0,0,0,-7.4172,-7.4199,-7.4476,-7.4402,-7.4404,-7.4384,-7.4401,-7.4536,-7.4575,-7.4473,-7.4468,-7.4489,-7.4617,-7.4665,-7.468,-7.489,-7.4717,-7.4728,-7.4735,-7.474,-7.5262,-7.5268,0,0,0,0,0,0,-7.4161,-7.419,-7.4471,-7.4481,-7.4276,-7.4396,-7.4415,-7.4486,-7.4573,-7.4581,-7.4494,-7.4486,-7.4648,-7.4666,-7.4686,-7.4919,-7.473,-7.4741,-7.4748,-7.5256,-7.5264,-7.5271,0,0,0,0,0,0,-7.4153,-7.4187,-7.4464,-7.4334,-7.4368,-7.4409,-7.4489,-7.4492,-7.454,-7.459,-7.4595,-7.4537,-7.4644,-7.4669,-7.4828,-7.4924,-7.4747,-7.4758,-7.5248,-7.5258,-7.5267,-7.5387,0,0,0,0,0,0,-7.4142,-7.4184,-7.426,-7.4337,-7.4376,-7.4606,-7.4495,-7.45,-7.4562,-7.4552,-7.4631,-7.4638,-7.4641,-7.481,-7.484,-7.4937,-7.4767,-7.5239,-7.5252,-7.5264,-7.5374,-7.54,-7.5421,0,0,0,0,0,-7.4129,-7.4285,-7.4264,-7.4298,-7.4471,-7.4612,-7.4633,-7.4636,-7.457,-7.4646,-7.4677,-7.4635,-7.4908,-7.4827,-7.486,-7.4962,-7.5233,-7.5249,-7.5263,-7.5364,-7.5395,-7.5421,0,0,0,0,0,0,-7.4215,-7.4295,-7.4272,-7.4458,-7.4529,-7.46,-7.4695,-7.4668,-7.4757,-7.4744,-7.4741,-7.4759,-7.4924,-7.4958,-7.4867,-7.5154,-7.506,-7.5083,-7.5126,-7.5155,-7.5178,-7.5166,-7.4777,0,0,0,0,0,-7.4256,-7.4366,-7.4428,-7.4587,-7.4624,-7.4654,-7.4715,-7.4711,-7.4783,-7.4811,-7.4855,-7.4924,-7.5026,-7.5092,-7.5188,-7.5379,-7.5395,-7.5465,-7.5488,-7.5507,-7.5527,-7.5631,-7.5663,-7.532,-7.532,-7.5319,0,0,-7.4341,-7.4398,-7.4467,-7.4606,-7.466,-7.4772,-7.4679,-7.4801,-7.4883,-7.4829,-7.4983,-7.5018,-7.5095,-7.5271,-7.5351,-7.5305,-7.5625,-7.5526,-7.5541,-7.555,-7.5649,-7.5682,-7.5711,-7.533,-7.5328,-7.5327,0,0,-7.4554,-7.4609,-7.4747,-7.4804,-7.4889,-7.4908,-7.4941,-7.5017,-7.5038,-7.5193,-7.5155,-7.5252,-7.5427,-7.5484,-7.5536,-7.5772,-7.5737,-7.5803,-7.5924,-7.6026,-7.6053,-7.6077,-7.6162,-7.6192,-7.5822,-7.5822,-7.5822,0,-7.4649,-7.4818,-7.4821,-7.4947,-7.5009,-7.4968,-7.5107,-7.5161,-7.5272,-7.5315,-7.5262,-7.5482,-7.5531,-7.572,-7.5778,-7.5821,-7.5858,-7.5794,-7.6049,-7.6073,-7.6096,-7.6176,-7.6208,-7.583,-7.5829,-7.5828,-7.5827,0,-7.493,-7.5049,-7.515,-7.5261,-7.5334,-7.5466,-7.5487,-7.556,-7.555,-7.5574,-7.5732,-7.579,-7.5898,-7.5942,-7.5932,-7.6131,-7.61,-7.6049,-7.5954,-7.6136,-7.6212,-7.6243,-7.584,-7.5838,-7.5835,-7.5834,0,0,-7.5201,-7.5314,-7.5351,-7.5402,-7.5493,-7.5583,-7.5713,-7.5821,-7.5884,-7.5961,-7.6069,-7.6219,-7.6173,-7.6232,-7.6228,-7.6317,-7.6502,-7.6255,-7.6257,-7.6299,-7.6724,-7.6762,-7.6798,-7.6479,-7.6485,-7.6489,-7.6718,0,-7.5421,-7.5652,-7.5659,-7.5869,-7.5978,-7.5941,-7.6054,-7.6121,-7.6148,-7.6242,-7.6269,-7.6376,-7.6307,-7.6343,-7.6429,-7.6461,-7.6587,-7.6444,-7.6578,-7.6583,-7.6561,-7.6838,-7.6878,-7.7091,-7.6747,-7.6752,-7.6756,0,-7.5709,-7.58,-7.6022,-7.6099,-7.6144,-7.6246,-7.6346,-7.6438,-7.6513,-7.6525,-7.6593,-7.6576,-7.6706,-7.6609,-7.6788,-7.6691,-7.6746,-7.677,-7.6778,-7.6791,-7.6681,-7.6858,-7.7159,-7.7191,-7.6802,-7.6799,-7.6795,0,-7.5885,-7.6062,-7.6218,-7.6262,-7.6356,-7.6428,-7.647,-7.6539,-7.6604,-7.6691,-7.6733,-7.6832,-7.6887,-7.6963,-7.6973,-7.6901,-7.7154,-7.7056,-7.7167,-7.7167,-7.7222,-7.7218,-7.7536,-7.7257,-7.7257,-7.7256,-7.7255,0,-7.613,-7.6268,-7.6299,-7.6395,-7.6548,-7.6553,-7.6703,-7.6739,-7.6801,-7.6902,-7.6875,-7.697,-7.6977,-7.7074,-7.7083,-7.723,-7.7255,-7.7268,-7.7268,-7.7271,-7.7269,-7.7306,-7.7292,-7.7265,-7.7263,-7.7261,-7.726,0,-7.6353,-7.6379,-7.6547,-7.6623,-7.6645,-7.6755,-7.6818,-7.6909,-7.6933,-7.7061,-7.7091,-7.7128,-7.7241,-7.7259,-7.7391,-7.7396,-7.7574,-7.7558,-7.7549,-7.7547,-7.7657,-7.7647,-7.8011,-7.8059,-7.7748,-7.7751,-7.7753,0,-7.6508,-7.6613,-7.6701,-7.6769,-7.6815,-7.6923,-7.699,-7.6999,-7.707,-7.7164,-7.7244,-7.7355,-7.7444,-7.7626,-7.7663,-7.7763,-7.7751,-7.7871,-7.7765,-7.7765,-7.7753,-7.7747,-7.7758,-7.7891,-7.7895,-7.7898,-7.79,0,-7.678,-7.6789,-7.6888,-7.6993,-7.7075,-7.7157,-7.7234,-7.729,-7.7309,-7.7389,-7.7506,-7.7576,-7.7712,-7.7822,-7.7922,-7.7962,-7.7935,-7.7933,-7.7964,-7.7968,-7.7958,-7.7965,-7.7605,-7.7925,-7.7922,-7.792,-7.7919,-7.7918,-7.6974,-7.7067,-7.7144,-7.7256,-7.7315,-7.7389,-7.7479,-7.7516,-7.7614,-7.7728,-7.7726,-7.7855,-7.7927,-7.8059,-7.8107,-7.8206,-7.8166,-7.8211,-7.8222,-7.8233,-7.8245,-7.7943,-7.8223,-7.8223,-7.8222,-7.8222,-7.8221,0,-7.7246,-7.7294,-7.7397,-7.7508,-7.7596,-7.7565,-7.7649,-7.7724,-7.7838,-7.7909,-7.7999,-7.8133,-7.824,-7.8287,-7.8392,-7.8462,-7.8452,-7.8489,-7.8484,-7.8494,-7.8273,-7.8236,-7.8496,-7.8496,-7.8496,-7.8496,-7.8496,-7.8495,-7.7397,-7.7553,-7.7571,-7.7755,-7.7802,-7.793,-7.7981,-7.8048,-7.8105,-7.8258,-7.8348,-7.8378,-7.8439,-7.8549,-7.8645,-7.8656,-7.8695,-7.8739,-7.8744,-7.8537,-7.8509,-7.8483,-7.8448,-7.8748,-7.8748,-7.8956,-7.8958,-7.896]}]]